ARG1009 SACO-YMML

Flight info

Callsign ARG1009
Flight time N/A
Altitude 32000
Route SIMES1G SIMES UT700 ORIKA UT109 GAL UP664 NAS/N0482F330 DCT 57S075W 62S082W/N0470F350 66S090W/N0474F340 70S102W 72S118W/N0473F360 73S138W 72S157W 70S173W 66S174E 62S165E/N0481F380 57S159E 53S154E 47S150E DCT TASUM H111 LT H215 ONAGI
Aircraft A346/H-SDE2E3FGHIJ3J4J5M1RWXY/LB1D1

Departure

Time 2026-05-07 17:32
Airport Ingeniero Aeronáutico Ambrosio L.V. Taravella International Airport (SACO)

Arrival

Time N/A
Airport Melbourne Airport (YMML)
Time Latitude Longitude Altitude Speed Heading
2026-05-07 17:03 -31.31485 -64.21160 1621 ft 0 kts 262°
2026-05-07 17:22 -31.31484 -64.21155 1621 ft 3 kts 261°
2026-05-07 17:23 -31.31480 -64.21132 1627 ft 3 kts 254°
2026-05-07 17:23 -31.31475 -64.21111 1624 ft 3 kts 260°
2026-05-07 17:23 -31.31474 -64.21090 1627 ft 3 kts 277°
2026-05-07 17:23 -31.31478 -64.21074 1627 ft 3 kts 303°
2026-05-07 17:24 -31.31483 -64.21067 1627 ft 3 kts 339°
2026-05-07 17:24 -31.31493 -64.21065 1627 ft 3 kts 10°
2026-05-07 17:24 -31.31512 -64.21071 1627 ft 3 kts 16°
2026-05-07 17:24 -31.31526 -64.21075 1624 ft 0 kts 15°
2026-05-07 17:25 -31.31526 -64.21076 1621 ft 0 kts 14°
2026-05-07 17:26 -31.31525 -64.21075 1621 ft 0 kts 15°
2026-05-07 17:27 -31.31494 -64.21055 1624 ft 11 kts 45°
2026-05-07 17:27 -31.31469 -64.20961 1621 ft 12 kts 85°
2026-05-07 17:27 -31.31452 -64.20865 1624 ft 12 kts 53°
2026-05-07 17:27 -31.31373 -64.20831 1624 ft 13 kts
2026-05-07 17:28 -31.31272 -64.20832 1629 ft 16 kts 359°
2026-05-07 17:28 -31.31154 -64.20833 1625 ft 18 kts 359°
2026-05-07 17:28 -31.31018 -64.20835 1622 ft 21 kts 359°
2026-05-07 17:28 -31.30870 -64.20837 1624 ft 22 kts 359°
2026-05-07 17:29 -31.30712 -64.20840 1625 ft 23 kts 359°
2026-05-07 17:29 -31.30546 -64.20843 1624 ft 25 kts 359°
2026-05-07 17:29 -31.30369 -64.20845 1625 ft 26 kts 359°
2026-05-07 17:29 -31.30190 -64.20848 1626 ft 26 kts 359°
2026-05-07 17:30 -31.30008 -64.20851 1625 ft 26 kts 359°
2026-05-07 17:30 -31.29824 -64.20855 1627 ft 26 kts 359°
2026-05-07 17:30 -31.29659 -64.20882 1622 ft 18 kts 338°
2026-05-07 17:30 -31.29619 -64.20885 1626 ft 4 kts 69°
2026-05-07 17:31 -31.29627 -64.20864 1628 ft 2 kts 139°
2026-05-07 17:31 -31.29644 -64.20860 1626 ft 12 kts 174°
2026-05-07 17:31 -31.29930 -64.20852 1626 ft 70 kts 179°
2026-05-07 17:31 -31.30609 -64.20844 1627 ft 124 kts 179°
2026-05-07 17:32 -31.31633 -64.20826 1626 ft 167 kts 179°
2026-05-07 17:32 -31.32840 -64.20821 2011 ft 170 kts 182°
2026-05-07 17:32 -31.34008 -64.20641 2494 ft 175 kts 154°
2026-05-07 17:32 -31.34990 -64.19724 2959 ft 185 kts 139°
2026-05-07 17:33 -31.35904 -64.18649 3494 ft 190 kts 139°
2026-05-07 17:33 -31.36863 -64.17541 3788 ft 200 kts 140°
2026-05-07 17:33 -31.37896 -64.16383 3999 ft 211 kts 141°
2026-05-07 17:33 -31.39002 -64.15170 4256 ft 223 kts 141°
2026-05-07 17:34 -31.40164 -64.13902 4616 ft 230 kts 141°
2026-05-07 17:34 -31.41337 -64.12626 5046 ft 230 kts 143°
2026-05-07 17:34 -31.42533 -64.11360 5088 ft 232 kts 140°
2026-05-07 17:34 -31.43685 -64.10051 5090 ft 239 kts 130°
2026-05-07 17:35 -31.44384 -64.08281 5100 ft 258 kts 99°
2026-05-07 17:35 -31.44300 -64.06172 5133 ft 275 kts 77°
2026-05-07 17:35 -31.43633 -64.04389 5120 ft 284 kts 54°
2026-05-07 17:35 -31.42524 -64.02845 5111 ft 293 kts 47°
2026-05-07 17:36 -31.41283 -64.01381 5102 ft 297 kts 44°
2026-05-07 17:36 -31.40057 -63.99999 5095 ft 295 kts 43°
2026-05-07 17:36 -31.38839 -63.98813 5092 ft 285 kts 36°
2026-05-07 17:36 -31.37483 -63.97734 5078 ft 277 kts 33°
2026-05-07 17:37 -31.36109 -63.96717 5085 ft 273 kts 32°
2026-05-07 17:37 -31.34743 -63.95727 5112 ft 270 kts 32°
2026-05-07 17:37 -31.33319 -63.94694 5136 ft 265 kts 31°
2026-05-07 17:37 -31.31794 -63.93577 5107 ft 262 kts 32°
2026-05-07 17:38 -31.30303 -63.92484 5110 ft 262 kts 32°
2026-05-07 17:38 -31.28692 -63.91553 5076 ft 261 kts
2026-05-07 17:38 -31.26964 -63.91310 5109 ft 260 kts 358°
2026-05-07 17:38 -31.25181 -63.91249 5095 ft 259 kts 356°
2026-05-07 17:39 -31.23473 -63.91223 5100 ft 258 kts 355°
2026-05-07 17:39 -31.21742 -63.91204 5104 ft 258 kts 355°
2026-05-07 17:39 -31.20001 -63.91223 5083 ft 252 kts 351°
2026-05-07 17:39 -31.18310 -63.91305 5076 ft 243 kts 353°
2026-05-07 17:40 -31.16669 -63.91415 5087 ft 243 kts 352°
2026-05-07 17:40 -31.15040 -63.91516 5102 ft 243 kts 352°
2026-05-07 17:40 -31.13426 -63.91611 5091 ft 243 kts 352°
2026-05-07 17:40 -31.11764 -63.91708 5102 ft 243 kts 352°
2026-05-07 17:41 -31.10126 -63.91807 5077 ft 240 kts 350°
2026-05-07 17:41 -31.08507 -63.91934 4873 ft 237 kts 349°
2026-05-07 17:41 -31.06879 -63.92096 4447 ft 239 kts 349°
2026-05-07 17:41 -31.05256 -63.92285 4084 ft 239 kts 349°
2026-05-07 17:42 -31.03652 -63.92491 3999 ft 239 kts 352°
2026-05-07 17:42 -31.02022 -63.92705 3999 ft 237 kts 349°
2026-05-07 17:42 -31.00469 -63.93062 3971 ft 230 kts 326°
2026-05-07 17:42 -30.99225 -63.94128 4082 ft 222 kts 307°
2026-05-07 17:43 -30.98181 -63.95406 4114 ft 220 kts 302°
2026-05-07 17:43 -30.97190 -63.96718 4022 ft 217 kts 303°
2026-05-07 17:43 -30.96287 -63.97949 4003 ft 217 kts 303°
2026-05-07 17:43 -30.95360 -63.99202 4000 ft 218 kts 302°
2026-05-07 17:44 -30.94406 -64.00461 4000 ft 217 kts 302°
2026-05-07 17:44 -30.93421 -64.01762 3990 ft 217 kts 303°
2026-05-07 17:44 -30.92776 -64.02642 3992 ft 216 kts 303°
2026-05-07 17:44 -30.91515 -64.04409 3990 ft 216 kts 303°
2026-05-07 17:45 -30.90582 -64.05747 3975 ft 215 kts 304°
2026-05-07 17:45 -30.89730 -64.07055 3985 ft 214 kts 303°
2026-05-07 17:45 -30.89207 -64.07868 3994 ft 214 kts 302°
2026-05-07 17:45 -30.88173 -64.09460 3985 ft 212 kts 303°
2026-05-07 17:46 -30.87411 -64.10637 3988 ft 212 kts 303°
2026-05-07 17:46 -30.86776 -64.11923 3983 ft 210 kts 282°
2026-05-07 17:46 -30.86767 -64.13401 3993 ft 202 kts 246°
2026-05-07 17:46 -30.87601 -64.14667 4015 ft 200 kts 216°
2026-05-07 17:47 -30.88786 -64.15329 4027 ft 189 kts 196°
2026-05-07 17:47 -30.90045 -64.15743 3993 ft 189 kts 195°
2026-05-07 17:47 -30.91319 -64.16145 3980 ft 190 kts 193°
2026-05-07 17:47 -30.92593 -64.16520 3918 ft 187 kts 194°
2026-05-07 17:48 -30.93855 -64.16896 3904 ft 188 kts 194°
2026-05-07 17:48 -30.95139 -64.17286 3909 ft 192 kts 193°
2026-05-07 17:48 -30.96431 -64.17657 3899 ft 190 kts 192°
2026-05-07 17:48 -30.97701 -64.18015 3894 ft 185 kts 193°
2026-05-07 17:49 -30.98960 -64.18379 3895 ft 186 kts 193°
2026-05-07 17:49 -31.00213 -64.18748 3903 ft 186 kts 193°
2026-05-07 17:49 -31.01468 -64.19112 3900 ft 184 kts 193°
2026-05-07 17:49 -31.02705 -64.19476 3890 ft 183 kts 194°
2026-05-07 17:50 -31.03919 -64.19836 3888 ft 182 kts 193°
2026-05-07 17:50 -31.05156 -64.20204 3896 ft 185 kts 193°
2026-05-07 17:50 -31.06379 -64.20554 3865 ft 173 kts 191°
2026-05-07 17:50 -31.07505 -64.20865 3849 ft 163 kts 194°
2026-05-07 17:51 -31.08618 -64.21116 3890 ft 163 kts 187°
2026-05-07 17:51 -31.09752 -64.21191 3900 ft 163 kts 181°
2026-05-07 17:51 -31.10883 -64.21175 3902 ft 163 kts 179°
2026-05-07 17:51 -31.12015 -64.21151 3889 ft 162 kts 179°
2026-05-07 17:52 -31.13156 -64.21130 3890 ft 162 kts 180°
2026-05-07 17:52 -31.14287 -64.21114 3886 ft 162 kts 180°
2026-05-07 17:52 -31.15406 -64.21098 3897 ft 163 kts 179°
2026-05-07 17:52 -31.16541 -64.21074 3883 ft 163 kts 179°
2026-05-07 17:53 -31.17677 -64.21056 3886 ft 163 kts 179°
2026-05-07 17:53 -31.18812 -64.21030 3754 ft 163 kts 176°
2026-05-07 17:53 -31.19940 -64.20997 3548 ft 161 kts 179°
2026-05-07 17:53 -31.21016 -64.20974 3308 ft 152 kts 182°
2026-05-07 17:54 -31.22073 -64.20981 3135 ft 150 kts 180°
2026-05-07 17:54 -31.23116 -64.20966 2933 ft 150 kts 181°
2026-05-07 17:54 -31.24168 -64.20949 2744 ft 152 kts 179°
2026-05-07 17:54 -31.25231 -64.20930 2520 ft 152 kts 178°
2026-05-07 17:55 -31.26288 -64.20907 2311 ft 152 kts 180°
2026-05-07 17:55 -31.27329 -64.20886 2129 ft 145 kts 181°
2026-05-07 17:55 -31.28322 -64.20867 1925 ft 141 kts 182°
2026-05-07 17:55 -31.29293 -64.20855 1710 ft 140 kts 182°
2026-05-07 17:56 -31.30162 -64.20848 1627 ft 95 kts 178°
2026-05-07 17:56 -31.30567 -64.20842 1625 ft 28 kts 180°
2026-05-07 17:56 -31.30757 -64.20840 1623 ft 27 kts 179°
2026-05-07 17:56 -31.30946 -64.20837 1627 ft 27 kts 179°
2026-05-07 17:57 -31.31130 -64.20834 1626 ft 26 kts 179°
2026-05-07 17:57 -31.31255 -64.20833 1624 ft 26 kts 179°